TimeCET,TemperatureF,Dew PointF,Humidity,Sea Level PressureIn,VisibilityMPH,Wind Direction,Wind SpeedMPH,Gust SpeedMPH,PrecipitationIn,Events,Conditions,WindDirDegrees,DateUTC
12:20 AM,32.0,19.4,60,29.62,6.2,NE,41.4,-,N/A,Rain,Light Rain Showers,40,2012-12-04 23:20:00
12:50 AM,32.0,21.2,64,29.62,6.2,NE,42.6,-,N/A,Rain,Light Rain Showers,40,2012-12-04 23:50:00
1:00 AM,12,9,80,,,WNW,2.2,,,,,290,2012-12-05 00:00:00
1:20 AM,32.0,19.4,60,29.62,6.2,NE,44.9,-,N/A,Rain,Light Rain Showers,40,2012-12-05 00:20:00
1:50 AM,32.0,21.2,64,29.62,6.2,NE,43.7,-,N/A,Rain,Light Rain Showers,40,2012-12-05 00:50:00
2:20 AM,32.0,23.0,69,29.62,4.3,NE,43.7,-,N/A,Rain,Rain Showers,40,2012-12-05 01:20:00
2:50 AM,33.8,21.2,60,29.65,6.2,NE,40.3,-,N/A,Rain-Snow,Light Rain Showers,40,2012-12-05 01:50:00
3:20 AM,33.8,21.2,60,29.62,6.2,NE,43.7,-,N/A,Rain,Light Rain Showers,40,2012-12-05 02:20:00
3:50 AM,33.8,17.6,52,29.62,6.2,NE,48.3,-,N/A,Rain,Light Rain Showers,40,2012-12-05 02:50:00
4:20 AM,33.8,15.8,48,29.65,6.2,NNE,49.5,-,N/A,Rain,Light Rain Showers,30,2012-12-05 03:20:00
4:50 AM,33.8,14.0,44,29.65,6.2,NE,44.9,-,N/A,,Mostly Cloudy,40,2012-12-05 03:50:00
5:20 AM,33.8,15.8,48,29.68,6.2,NE,41.4,-,N/A,,Scattered Clouds,40,2012-12-05 04:20:00
5:50 AM,33.8,15.8,48,29.68,6.2,NE,43.7,-,N/A,,Scattered Clouds,40,2012-12-05 04:50:00
6:20 AM,33.8,15.8,48,29.68,6.2,NE,40.3,-,N/A,,Scattered Clouds,40,2012-12-05 05:20:00
6:50 AM,33.8,14.0,44,29.71,6.2,NE,41.4,-,N/A,,Mostly Cloudy,40,2012-12-05 05:50:00
7:00 AM,15,7,57,,,WNW,2.2,,,,,290,2012-12-05 06:00:00
7:20 AM,33.8,15.8,48,29.71,6.2,North,-9999.0,-,N/A,,Unknown,0,2012-12-05 06:20:00
7:50 AM,33.8,17.6,52,29.74,6.2,NE,34.5,-,N/A,,Partly Cloudy,40,2012-12-05 06:50:00
8:20 AM,33.8,17.6,52,29.74,6.2,NE,32.2,-,N/A,,Partly Cloudy,40,2012-12-05 07:20:00
8:50 AM,35.6,17.6,48,29.74,6.2,NE,29.9,-,N/A,,Mostly Cloudy,40,2012-12-05 07:50:00
9:20 AM,35.6,19.4,52,29.77,6.2,NE,27.6,-,N/A,,Mostly Cloudy,40,2012-12-05 08:20:00
9:50 AM,35.6,21.2,56,29.77,6.2,NE,23.0,-,N/A,,Mostly Cloudy,40,2012-12-05 08:50:00
10:20 AM,33.8,17.6,52,29.77,6.2,NE,21.9,-,N/A,,Mostly Cloudy,40,2012-12-05 09:20:00
10:50 AM,35.6,21.2,56,29.77,6.2,NNE,19.6,-,N/A,,Mostly Cloudy,30,2012-12-05 09:50:00
11:20 AM,35.6,21.2,56,29.77,6.2,NNE,17.3,-,N/A,,Mostly Cloudy,30,2012-12-05 10:20:00
11:50 AM,35.6,21.2,56,29.77,6.2,NNE,13.8,-,N/A,,Mostly Cloudy,20,2012-12-05 10:50:00
12:20 PM,35.6,23.0,60,29.77,6.2,NNE,11.5,-,N/A,,Scattered Clouds,30,2012-12-05 11:20:00
12:50 PM,35.6,23.0,60,29.77,6.2,NNE,10.4,-,N/A,,Mostly Cloudy,30,2012-12-05 11:50:00
1:00 PM,15,6,56,,,WNW,4.5,,,,,290,2012-12-05 12:00:00
1:20 PM,35.6,21.2,56,29.77,6.2,NNW,8.1,-,N/A,,Partly Cloudy,340,2012-12-05 12:20:00
1:50 PM,35.6,24.8,65,29.77,6.2,NW,9.2,-,N/A,Rain,Light Rain,310,2012-12-05 12:50:00
3:50 PM,35.6,28.4,75,29.74,6.2,West,6.9,-,N/A,,Mostly Cloudy,260,2012-12-05 14:50:00
4:20 PM,35.6,28.4,75,29.74,6.2,WSW,4.6,-,N/A,Rain,Light Rain Showers,240,2012-12-05 15:20:00
4:50 PM,35.6,30.2,81,29.74,6.2,Variable,6.9,-,N/A,Rain-Snow,Light Rain Showers,0,2012-12-05 15:50:00
5:20 PM,35.6,32.0,87,29.74,6.2,West,10.4,-,N/A,,Mostly Cloudy,270,2012-12-05 16:20:00
5:50 PM,35.6,32.0,87,29.74,6.2,West,10.4,-,N/A,,Mostly Cloudy,260,2012-12-05 16:50:00
6:20 PM,35.6,32.0,87,29.74,6.2,West,12.7,-,N/A,,Mostly Cloudy,260,2012-12-05 17:20:00
6:50 PM,33.8,32.0,93,29.74,6.2,West,9.2,-,N/A,Rain,Light Rain,260,2012-12-05 17:50:00
7:00 PM,14,6,58,,,NW,2.2,,,,,310,2012-12-05 18:00:00
7:20 PM,35.6,33.8,93,29.74,6.2,West,6.9,-,N/A,Rain,Light Rain Showers,280,2012-12-05 18:20:00
7:50 PM,35.6,32.0,87,29.74,6.2,NW,10.4,-,N/A,Rain-Snow,Light Rain Showers,310,2012-12-05 18:50:00
8:20 PM,35.6,33.8,93,29.74,6.2,WNW,11.5,-,N/A,Rain,Light Rain Showers,290,2012-12-05 19:20:00
8:50 PM,35.6,33.8,93,29.74,6.2,NW,12.7,-,N/A,Rain,Light Rain Showers,320,2012-12-05 19:50:00
9:20 PM,35.6,33.8,93,29.74,6.2,WNW,4.6,-,N/A,Snow,Light Snow Showers,290,2012-12-05 20:20:00
9:50 PM,35.6,33.8,93,29.71,6.2,WNW,9.2,-,N/A,Rain,Light Rain Showers,300,2012-12-05 20:50:00
10:20 PM,37.4,30.2,75,29.71,6.2,NNW,9.2,-,N/A,,Mostly Cloudy,330,2012-12-05 21:20:00
10:50 PM,35.6,33.8,93,29.71,6.2,North,27.6,-,N/A,,Mostly Cloudy,350,2012-12-05 21:50:00
11:20 PM,35.6,32.0,87,29.71,6.2,NNW,16.1,-,N/A,Rain,Light Rain Showers,340,2012-12-05 22:20:00
11:50 PM,37.4,30.2,75,29.71,6.2,North,10.4,-,N/A,,Scattered Clouds,350,2012-12-05 22:50:00